Zurück zum Katalog

NOAA 16 DEB

AktivSSO
NORAD 41216·DEBRIS·🇺🇸 United States

Gestartet Sep 21, 2000 von Vandenberg Space Force Base

Loading…

Nächste Überflüge (nächste 24 Stunden)

TLE

AktuellSource: Space-Track

Epoche: Sep 13, 2026, 19:33 UTC

1 41216U 00055DV  26256.81464634  .00001364  00000-0  90903-3 0  9999
2 41216  98.9365 206.5238 0094966 304.9249  54.3022 14.00704158546794

Verfolge NOAA 16 DEB in Echtzeit mit AllMySat

Download on the App Store